Date String (YYYY-MM-DD hh:mm:ss) UTC,Instrument flags,Ambient pressure (hPa),Sample flow (lpm),Bypass flow (lpm),Sample temperature (°C),Ambient temperature (°C),ASC tube jacket temperature (°C),LED temperature (°C),Box temperature (°C),Sample RH (%),Span deviation,Mass concentration (μg/m³),Mass concentration (μg/m³),Mass concentration (μg/m³)
DateTimeUTC,F1_M11,P_M11,Q1_M11,Q2_M11,T1_M11,T2_M11,T3_M11,T4_M11,T5_M11,U1_M11,ZSPAN_M11,X0_M11,X2_M11,X1_M11
2022-02-06 11:00:00,,0831.2,5.02,0.00,22.3,21.5,00.0,31.4,23.9,12.5,0000.0,0002.58,0001.33,0000.90
2022-02-06 11:01:00,,0831.1,5.00,0.00,22.3,21.6,00.0,31.4,23.9,12.5,0000.0,0003.36,0001.31,0000.88
2022-02-06 11:02:00,,0831.2,5.00,0.00,22.3,22.1,00.0,31.4,24.1,12.5,0000.0,0004.11,0001.28,0000.87
2022-02-06 11:03:00,,0831.2,5.00,0.00,22.5,22.9,00.0,31.4,24.4,12.5,0000.0,0004.24,0001.27,0000.87
2022-02-06 11:04:00,,0831.2,5.00,0.00,22.6,23.1,00.0,31.5,24.5,12.4,0000.0,0004.53,0001.27,0000.88
2022-02-06 11:05:00,,0831.1,5.00,0.00,22.6,22.9,00.0,31.5,24.5,12.4,0000.0,0006.02,0001.26,0000.89
2022-02-06 11:06:00,,0831.1,4.99,0.00,22.6,22.7,00.0,31.5,24.4,12.4,0000.0,0006.49,0001.24,0000.88
2022-02-06 11:07:00,,0831.1,5.00,0.00,22.6,22.5,00.0,31.5,24.4,12.4,0000.0,0006.57,0001.25,0000.88
2022-02-06 11:08:00,,0831.1,5.01,0.00,22.6,22.3,00.0,31.5,24.3,12.4,0000.0,0006.65,0001.25,0000.88
2022-02-06 11:09:00,,0831.2,4.99,0.00,22.6,22.2,00.0,31.5,24.3,12.4,0000.0,0006.27,0001.24,0000.88
2022-02-06 11:10:00,,0831.2,5.01,0.00,22.6,22.1,00.0,31.5,24.3,12.4,0000.0,0006.16,0001.22,0000.88
2022-02-06 11:11:00,,0831.2,4.99,0.00,22.6,22.0,00.0,31.5,24.3,12.4,0000.0,0006.16,0001.22,0000.88
2022-02-06 11:12:00,,0831.2,5.00,0.00,22.6,22.0,00.0,31.5,24.3,12.3,0000.0,0005.62,0001.28,0000.89
2022-02-06 11:13:00,,0831.2,5.01,0.00,22.5,21.9,00.0,31.5,24.3,12.3,0000.0,0005.51,0001.33,0000.90
2022-02-06 11:14:00,,0831.1,4.99,0.00,22.5,21.9,00.0,31.5,24.3,12.3,0000.0,0005.70,0001.42,0000.90
2022-02-06 11:15:00,,0831.2,5.01,0.00,22.5,21.8,00.0,31.5,24.2,12.3,0000.0,0005.40,0001.40,0000.89
2022-02-06 11:16:00,,0831.2,4.99,0.00,22.5,21.7,00.0,31.5,24.2,12.3,0000.0,0003.93,0001.43,0000.90
2022-02-06 11:17:00,,0831.4,5.01,0.00,22.5,21.7,00.0,31.5,24.2,12.3,0000.0,0003.50,0001.44,0000.89
2022-02-06 11:18:00,,0831.4,4.99,0.00,22.4,21.7,00.0,31.5,24.1,12.3,0000.0,0003.50,0001.43,0000.89
2022-02-06 11:19:00,,0831.4,5.01,0.00,22.4,21.7,00.0,31.5,24.1,12.3,0000.0,0003.44,0001.43,0000.88
2022-02-06 11:20:00,,0831.4,5.00,0.00,22.4,21.6,00.0,31.5,24.0,12.3,0000.0,0004.05,0001.44,0000.88
2022-02-06 11:21:00,,0831.4,5.01,0.00,22.4,21.6,00.0,31.5,24.0,12.3,0000.0,0004.52,0001.39,0000.87
2022-02-06 11:22:00,,0831.4,4.99,0.00,22.4,21.6,00.0,31.4,24.0,12.3,0000.0,0004.50,0001.39,0000.87
2022-02-06 11:23:00,,0831.4,5.01,0.00,22.3,21.6,00.0,31.4,24.0,12.3,0000.0,0004.30,0001.37,0000.86
2022-02-06 11:24:00,,0831.4,5.01,0.00,22.3,21.5,00.0,31.4,23.9,12.3,0000.0,0003.70,0001.33,0000.86
2022-02-06 11:25:00,,0831.4,4.99,0.00,22.3,21.5,00.0,31.4,23.9,12.3,0000.0,0003.38,0001.24,0000.85
2022-02-06 11:26:00,,0831.4,5.01,0.00,22.3,21.5,00.0,31.4,23.9,12.4,0000.0,0003.80,0001.26,0000.86
2022-02-06 11:27:00,,0831.4,4.99,0.00,22.2,21.5,00.0,31.4,23.9,12.4,0000.0,0003.75,0001.22,0000.84
2022-02-06 11:28:00,,0831.4,4.99,0.00,22.2,21.7,00.0,31.4,23.9,12.3,0000.0,0003.80,0001.22,0000.84
2022-02-06 11:29:00,,0831.6,5.00,0.00,22.3,22.3,00.0,31.4,24.1,12.3,0000.0,0003.71,0001.21,0000.84
2022-02-06 11:30:00,,0831.6,5.00,0.00,22.5,23.0,00.0,31.4,24.4,12.2,0000.0,0003.65,0001.19,0000.84
2022-02-06 11:31:00,,0831.6,5.00,0.00,22.6,23.0,00.0,31.4,24.5,12.1,0000.0,0003.15,0001.22,0000.83
2022-02-06 11:32:00,,0831.6,4.98,0.00,22.6,22.7,00.0,31.5,24.4,12.1,0000.0,0003.03,0001.33,0000.84
2022-02-06 11:33:00,,0831.6,5.00,0.00,22.5,22.5,00.0,31.5,24.3,12.1,0000.0,0003.58,0001.38,0000.84
2022-02-06 11:34:00,,0831.6,5.01,0.00,22.5,22.3,00.0,31.5,24.2,12.1,0000.0,0003.60,0001.38,0000.84
2022-02-06 11:35:00,,0831.6,4.99,0.00,22.5,22.1,00.0,31.5,24.2,12.2,0000.0,0004.00,0001.40,0000.85
2022-02-06 11:36:00,,0831.6,5.01,0.00,22.4,22.0,00.0,31.4,24.1,12.2,0000.0,0005.08,0001.44,0000.86
2022-02-06 11:37:00,,0831.7,5.01,0.00,22.4,21.9,00.0,31.4,24.0,12.2,0000.0,0004.90,0001.43,0000.87
2022-02-06 11:38:00,,0831.7,5.00,0.00,22.4,21.8,00.0,31.4,24.0,12.2,0000.0,0005.08,0001.48,0000.88
2022-02-06 11:39:00,,0831.7,4.99,0.00,22.4,21.8,00.0,31.4,24.0,12.2,0000.0,0005.03,0001.49,0000.88
2022-02-06 11:40:00,,0831.7,5.02,0.00,22.4,21.7,00.0,31.4,24.0,12.2,0000.0,0005.02,0001.45,0000.88
2022-02-06 11:41:00,,0831.7,4.99,0.00,22.4,21.7,00.0,31.4,24.0,12.2,0000.0,0005.30,0001.52,0000.88
2022-02-06 11:42:00,,0831.7,4.99,0.00,22.3,21.7,00.0,31.4,24.1,12.2,0000.0,0005.39,0001.52,0000.88
2022-02-06 11:43:00,,0831.7,5.00,0.00,22.3,21.6,00.0,31.4,24.1,12.2,0000.0,0005.77,0001.48,0000.88
2022-02-06 11:44:00,,0831.7,4.99,0.00,22.3,21.6,00.0,31.4,24.0,12.2,0000.0,0005.72,0001.48,0000.91
2022-02-06 11:45:00,,0831.7,5.01,0.00,22.3,21.5,00.0,31.4,24.0,12.2,0000.0,0005.59,0001.48,0000.93
2022-02-06 11:46:00,,0831.8,5.01,0.00,22.3,21.5,00.0,31.4,24.0,12.1,0000.0,0005.41,0001.50,0000.94
2022-02-06 11:47:00,,0831.8,4.99,0.00,22.3,21.4,00.0,31.4,24.0,12.1,0000.0,0004.23,0001.48,0000.94
2022-02-06 11:48:00,,0831.8,5.02,0.00,22.3,21.4,00.0,31.3,24.0,12.0,0000.0,0003.96,0001.47,0000.94
2022-02-06 11:49:00,,0831.7,5.00,0.00,22.3,21.4,00.0,31.3,24.0,12.0,0000.0,0003.76,0001.42,0000.94
2022-02-06 11:50:00,,0831.7,5.00,0.00,22.2,21.4,00.0,31.3,23.9,12.0,0000.0,0003.96,0001.46,0000.95
2022-02-06 11:51:00,,0831.7,5.00,0.00,22.2,21.3,00.0,31.3,23.9,12.0,0000.0,0004.01,0001.51,0000.95
2022-02-06 11:52:00,,0831.8,4.99,0.00,22.2,21.3,00.0,31.3,23.9,12.0,0000.0,0003.84,0001.47,0000.95
2022-02-06 11:53:00,,0831.8,5.01,0.00,22.2,21.4,00.0,31.3,23.9,12.0,0000.0,0003.70,0001.44,0000.95
2022-02-06 11:54:00,,0831.8,5.01,0.00,22.2,21.4,00.0,31.3,23.9,12.0,0000.0,0003.02,0001.40,0000.94
2022-02-06 11:55:00,,0831.9,5.00,0.00,22.2,21.3,00.0,31.3,23.9,12.0,0000.0,0002.92,0001.32,0000.91
2022-02-06 11:56:00,,0831.9,4.99,0.00,22.2,21.5,00.0,31.3,23.9,12.0,0000.0,0003.06,0001.30,0000.88
2022-02-06 11:57:00,,0832.0,5.01,0.00,22.3,22.1,00.0,31.3,24.1,12.0,0000.0,0003.17,0001.31,0000.87
2022-02-06 11:58:00,,0832.0,4.99,0.00,22.4,22.8,00.0,31.3,24.3,11.9,0000.0,0003.45,0001.34,0000.85
2022-02-06 11:59:00,,0832.0,5.00,0.00,22.5,23.0,00.0,31.3,24.5,11.9,0000.0,0003.46,0001.35,0000.85
